User: anonymous   Login
Location: Arrodets-la-Barthe
(43.0306°N, 0.2829°E)
Time: 03:53:48
(UTC+00:00)
Language:

USA 215 - Orbit

View from above orbital plane
View from above orbital plane
View from above satellite
View from above satellite

Ground track
Ground track

The orbit data is extracted from the following two-line orbital elements,

1 37162U 10046A   22014.23491999 0.00000000  00000-0  00000-0 0    08
2 37162 122.9957 324.3531 0006722 152.6673 207.3327 13.41450842    00
Epoch (UTC): 14 January 2022 05:38:17
Eccentricity: 0.0006722
inclination: 122.9957°
perigee height: 1099 km
apogee height: 1109 km
right ascension of ascending node: 324.3531°
argument of perigee: 152.6673°
revolutions per day: 13.41450842
mean anomaly at epoch: 207.3327°
orbit number at epoch: 0

The dashed part of the orbit path shows where the satellite is in the earth's shadow,  

DLR